Voltar ao catálogo

STARLINK-3946

AtivoComunicaçõesVLEO
NORAD 52693·PAYLOAD·🇺🇸 United States

Lançado May 18, 2022 de Cape Canaveral Space Force Station

Loading…

Próximas Passagens (próximas 24 horas)

TLE

AtualizadoSource: CelesTrak SupGP

Época: Sep 14, 2026, 22:13 UTC

1 52693C 22053AP  26257.92618056  .00168050  00000+0  67956-2 0  2577
2 52693  53.1600  12.8561 0001243  79.0490   5.3337 15.24112232    19

Acompanhe STARLINK-3946 em tempo real com AllMySat

Download on the App Store